weather.gov     
National Weather Service

Regional Weather Roundup
NWS Homepage
This page is being discontinued on March 12, 2014.
The same data is available at this site. Please update your bookmarks.
Thank you, and we apologize for the inconvenience.
Please send an email to SR-SRH.Webmaster@noaa.gov with any concerns.


Current Version
Previous Version:    01  02  03  04  05  06  07  08  09  10  11  12  13  14  15  16  17  18  19  20  21  22  23  24  25  26  27  28  29  30  
   31  32  33  34  35  36  37  38  39  40  41  42  43  44  45  46  47  48  49  50  51  52  53  
[Printable]
874
ASUS45 KTFX 210919
RWRMT
MONTANA HOURLY WEATHER ROUNDUP
NATIONAL WEATHER SERVICE GREAT FALLS MT
219 AM MST SUN DEC 21 2014

NOTE: "FAIR" INDICATES FEW OR NO CLOUDS BELOW 12000 FEET WITH NO
SIGNIFICANT WEATHER AND/OR OBSTRUCTIONS TO VISIBILITY.

* THESE STATIONS ARE NOT UNDER NWS QUALITY CONTROL. THEY DO NOT
   REPORT WEATHER SUCH AS PRECIPITATION OR FOG.

MTZ001>007-043-211000-
WEST OF THE DIVIDE
CITY           SKY/WX    TMP DP  RH WIND       PRES   REMARKS
KALISPELL      LGT RAIN  34  34 100 SE13      29.48F WCI  25
MISSOULA       LGT RAIN  37  34  89 E9        29.57F WCI  30
BUTTE          CLOUDY    32  25  75 N5        29.62F WCI  27
MULLAN PASS    SNOW      30  27  89 S8        29.45F VSB 1/2  WCI  22
* ESSEX        N/A       32  31  96 N/A        N/A
* EUREKA APT   CLOUDY    37  34  89 S17G23    29.45F WCI  27
* HAMILTON APT MOCLDY    39  34  82 S14       29.57F WCI  31
* LIBBY APT    PTCLDY   N/A N/A N/A CALM       N/A
* LINCOLN      N/A       33  31  92 W4G10      N/A
* LOOKOUT PASS N/A       32  32 100 S4G10      N/A
* POLSON       N/A       35  35 100 S2G8       N/A
* RONAN APT    MOCLDY    37  36  96 SE7        N/A   WCI  32
* SEELEY LAKE  N/A       28  27  96 N/A        N/A
* THOMP F APT  PTCLDY    29  28  96 S6G15      N/A   WCI  23
$$

MTZ008-052>055-211000-
SOUTHWEST MONTANA
CITY           SKY/WX    TMP DP  RH WIND       PRES   REMARKS
BOZEMAN        CLOUDY    34  28  79 SE6       29.59F WCI  29
DILLON         CLOUDY    36  28  73 S5        29.64F WCI  32
* W YELLOWSTON CLOUDY    29  27  92 SW5G15     N/A   WCI  24
* THREE FORKS  CLOUDY    41  41 100 N/A        N/A
* BOULDER HILL N/A       34  22  61 S11G17     N/A   WCI  26
* MONIDA PASS  N/A       27  27 100 SE16       N/A   WCI  15
* RAYNOLDS PAS N/A       29  14  53 SE17G22    N/A   WCI  17
* WHITEHALL    N/A       41  26  55 SW16G26    N/A
* WISE RIVER   N/A       30  29  96 NW5G13     N/A   WCI  25
$$

MTZ009>010-012-014-046-048-049-054-211000-
EAST SLOPES AND CENTRAL MONTANA
CITY           SKY/WX    TMP DP  RH WIND       PRES   REMARKS
CUT BANK       MOCLDY    32  27  82 SE7       29.35F WCI  25
GREAT FALLS    CLOUDY    43  28  56 S16G25    29.42F
HELENA         CLOUDY    34  28  79 W5        29.53F WCI  29
MALMSTROM AFB  CLOUDY    41  30  65 S18G25    29.43F
* CONRAD       CLOUDY    34  30  85 CALM       N/A
* DEARBORN     N/A       46  28  50 S18G34     N/A
* EAST GLACIER N/A       37  28  70 W32G50     N/A   WCI  24
* MONARCH      N/A       37  20  50 S19G29     N/A   WCI  27
* PENDROY      N/A       33  27  79 S4G9       N/A
* ROGERS PASS  N/A       32  30  92 SE19G30    N/A   WCI  20
* WHITE SULPH  N/A       37  27  67 S13G20     N/A   WCI  29
$$

MTZ011-013-016-021-035-040-045-047-050-051-211000-
NORTH CENTRAL MONTANA
CITY           SKY/WX    TMP DP  RH WIND       PRES   REMARKS
HAVRE          MOCLDY    23  19  85 E6        29.43F WCI  16
LEWISTOWN      MOCLDY    41  27  58 SW20      29.47F
* N BAR RANCH  FAIR      36  21  54 E7        29.50F WCI  30
* CHINOOK      MOCLDY    23  19  85 E7        29.45F WCI  15
* CHESTER      N/A       21  18  88 NE1        N/A
* DENTON       N/A       34  24  67 SW6        N/A   WCI  29
* GEYSER       N/A       42  25  51 SW23G29    N/A
* JUDITH GAP   N/A       32  24  72 S12G20     N/A   WCI  23
* LOMA         N/A       31  25  78 NE9        N/A   WCI  23
$$

MTZ017>020-022>027-061-062-211000-
NORTHEAST MONTANA
CITY           SKY/WX    TMP DP  RH WIND       PRES   REMARKS
GLASGOW        CLEAR     23  18  81 E13       29.53F WCI  11
GLENDIVE       CLEAR     23  19  85 S10       29.61F WCI  13
JORDAN         PTCLDY    18  16  92 CALM      29.54F
SIDNEY         CLEAR     25  21  85 S9        29.63F WCI  16
WOLF POINT     CLEAR     18  14  84 NE6       29.59F WCI  10
* BEAVER HILL  N/A       34  24  67 S14        N/A   WCI  24
* CIRCLE       N/A       29  24  82 N/A        N/A
* LINDSAY DVD  N/A       27  21  78 SE6        N/A   WCI  20
* PLENTYWOOD A CLEAR     21  19  92 E8        29.58F WCI  11
* POPLAR APT   CLEAR     21  19  92 NW3       29.58F
* SACO         N/A       18  16  92 E2         N/A
$$

MTZ028>042-056>058-211000-
SOUTHCENTRAL AND SOUTHEAST MONTANA
CITY           SKY/WX    TMP DP  RH WIND       PRES   REMARKS
BAKER          CLEAR     21  19  92 E5        29.64F WCI  14
BILLINGS       CLOUDY    34  21  59 SW10      29.55F WCI  26
LIVINGSTON     CLOUDY    45  25  45 SW35G44   29.53F
MILES CITY     PTCLDY    27  23  85 SE10      29.60F WCI  18
* FORSYTH APT  PTCLDY    27  23  85 E5        29.57F WCI  21
* LAUREL APT   MOCLDY    36  18  48 SW5        N/A   WCI  32
* ROUNDUP APT  CLOUDY    36  21  54 N/A        N/A
* ALZADA       N/A       29  23  78 E4         N/A
* HYSHAM       N/A       36  18  48 W1G8       N/A
* LAME DEER    N/A       32  21  64 SW6        N/A   WCI  26
* REED POINT   N/A       26  23  88 E6         N/A   WCI  19
* ROSCOE HILL  N/A       44  13  28 SW26G34    N/A
$$

REGIONAL REPORTS...DAKOTAS
CITY           SKY/WX    TMP DP  RH WIND       PRES   REMARKS
WILLISTON      PTCLDY    16  14  92 SW3       29.63F
DICKINSON      MOCLDY    25  19  78 S10       29.64F WCI  15
BEACH          CLEAR     25  25 100 S7        29.63F WCI  17
CROSBY         CLEAR     19  19 100 S9        29.61F WCI   8
TIOGA          CLEAR     16  16 100 E5        29.65F WCI   8
WATFORD CITY   CLEAR     19  18  96 CALM      29.62F
BISMARCK       CLEAR     12  10  92 NE5       29.74F WCI   4
GRAND FORKS    CLOUDY    30  28  92 S12       29.79F WCI  20
FARGO          FOG       32  28  85 S13       29.83F WCI  22
BUFFALO SD     PTCLDY    28  21  75 S7        29.61F WCI  21
RAPID CITY     PTCLDY    28  21  75 CALM      29.69F
$$

REGIONAL REPORTS...WYOMING/IDAHO/WASHINGTON
CITY           SKY/WX    TMP DP  RH WIND       PRES   REMARKS
GILLETTE       PTCLDY    34  19  54 SW13      29.65F WCI  25
SHERIDAN       MOCLDY    23  18  81 CALM      29.61F
CODY           MOCLDY    43  25  49 W16G23    29.61F
YELLOWSTONE LA CLOUDY    27  23  85 VRB3      29.77F
SALMON         CLOUDY    34  30  85 N3        29.71F
MULLAN PASS    SNOW      30  27  89 S8        29.45S VSB 1/2  WCI  22
SAND POINT     N/A       34  34 100 CALM      29.47F VSB 2
SPOKANE        LGT RAIN  46  45  96 SW26G33   29.44F
$$

REGIONAL REPORTS...ALBERTA
CITY           SKY/WX    TMP DP  RH WIND       PRES   REMARKS
CALGARY        MOCLDY    28  21  75 CALM      29.20F
LETHBRIDGE     CLOUDY    34  28  79 S17       29.29F WCI  23
MEDICINE HAT   MOCLDY    28  25  89 S8        29.35F WCI  20
EDMONTON       MOCLDY    21  16  81 SE7       29.24F WCI  12
WATERTON GATE  N/A       37  30  76 SW24G39    N/A   WCI  26
CARDSTON       N/A       41  32  70 W8         N/A
MILK RIVER     N/A       30  25  82 S9         N/A   WCI  22
$$

REGIONAL REPORTS...SASKATCHEWAN
CITY           SKY/WX    TMP DP  RH WIND       PRES   REMARKS
SWIFT CURRENT  N/A       23  19  85 S14       29.45F WCI  10
REGINA         FAIR      14  12  92 E9        29.57F WCI   2
VAL MARIE      N/A       12  10  92 W2         N/A
ASSINIBOIA     N/A       23  19  85 S7         N/A   WCI  15
CORONACH       N/A       19  18  96 SE5        N/A   WCI  12

$$





U.S. Dept. of Commerce
NOAA National Weather Service
1325 East West Highway
Silver Spring, MD 20910
E-mail: w-nws.webmaster@noaa.gov
Page last modified: May 16, 2007
NATIONAL WEATHER SERVICE: for Safety, for Work, for Fun - FOR LIFE